,,,PA_Meas_PMT16A,,PR_Meas_QMR101_102,,RH_Meas_QMH101,,SR_Meas_QMS101,,TA_Meas_QMH101,,GenWind,,GenWind,
date,time,status,PA,status,PR,status,RH,status,SR,status,TA,status,DirAvg,status,SpdAvg,
2011-03-28, 00:00:04,VALID,998.5,VALID,0,VALID,91.09,VALID,0,VALID,23.5646,VALID,113,VALID,0.157031,
2011-03-28, 00:01:04,VALID,998.487,VALID,0,VALID,91.0824,VALID,0,VALID,23.5841,VALID,101,VALID,0.292969,
2011-03-28, 00:02:04,VALID,998.505,VALID,0,VALID,91.1434,VALID,0,VALID,23.5841,VALID,12,VALID,0.526563,
2011-03-28, 00:03:04,VALID,998.472,VALID,0,VALID,91.1587,VALID,0,VALID,23.5646,VALID,21,VALID,0.617578,
2011-03-28, 00:04:04,VALID,998.475,VALID,0,VALID,91.1816,VALID,0,VALID,23.5646,VALID,45,VALID,1.38711,
2011-03-28, 00:05:04,VALID,998.498,VALID,0,VALID,91.1968,VALID,0,VALID,23.5451,VALID,32,VALID,1.36914,
2011-03-28, 00:06:04,VALID,998.5,VALID,0,VALID,91.2503,VALID,0,VALID,23.5256,VALID,45,VALID,0.875391,
2011-03-28, 00:07:04,VALID,998.506,VALID,0,VALID,91.2503,VALID,0,VALID,23.5256,VALID,44,VALID,0.358984,
2011-03-28, 00:08:04,VALID,998.478,VALID,0,VALID,91.2884,VALID,0,VALID,23.5061,VALID,345,VALID,0.741016,
2011-03-28, 00:09:04,VALID,998.511,VALID,0,VALID,91.3342,VALID,0,VALID,23.5061,VALID,355,VALID,0.597656,
2011-03-28, 00:10:04,VALID,998.486,VALID,0,VALID,91.38,VALID,0,VALID,23.4866,VALID,24,VALID,0.834766,
2011-03-28, 00:11:04,VALID,998.487,VALID,0,VALID,91.4486,VALID,0,VALID,23.4671,VALID,29,VALID,0.892187,
2011-03-28, 00:12:04,VALID,998.483,VALID,0,VALID,91.5173,VALID,0,VALID,23.4671,VALID,47,VALID,1.22734,
2011-03-28, 00:13:04,VALID,998.451,VALID,0,VALID,91.5783,VALID,0,VALID,23.4671,VALID,55,VALID,0.937891,
2011-03-28, 00:14:04,VALID,998.448,VALID,0,VALID,91.6088,VALID,0,VALID,23.4688,VALID,59,VALID,0.970703,
2011-03-28, 00:15:04,VALID,998.448,VALID,0,VALID,91.6623,VALID,0,VALID,23.4671,VALID,46,VALID,1.53906,
2011-03-28, 00:16:04,VALID,998.429,VALID,0,VALID,91.6699,VALID,0,VALID,23.4458,VALID,58,VALID,1.89961,
2011-03-28, 00:17:04,VALID,998.432,VALID,0,VALID,91.6699,VALID,0,VALID,23.4671,VALID,63,VALID,1.61523,
2011-03-28, 00:18:04,VALID,998.42,VALID,0,VALID,91.6623,VALID,0,VALID,23.4671,VALID,59,VALID,1.59492,
2011-03-28, 00:19:04,VALID,998.406,VALID,0,VALID,91.6394,VALID,0,VALID,23.4866,VALID,73,VALID,1.37578,
2011-03-28, 00:20:04,VALID,998.381,VALID,0,VALID,91.586,VALID,0,VALID,23.4671,VALID,78,VALID,1.17148,
2011-03-28, 00:21:04,VALID,998.356,VALID,0,VALID,91.4944,VALID,0,VALID,23.4866,VALID,78,VALID,0.248828,
2011-03-28, 00:22:04,VALID,998.355,VALID,0,VALID,91.4181,VALID,0,VALID,23.4671,VALID,79,VALID,0.313672,
2011-03-28, 00:23:04,VALID,998.348,VALID,0,VALID,91.3037,VALID,0,VALID,23.4475,VALID,104,VALID,0.550781,
2011-03-28, 00:24:04,VALID,998.367,VALID,0,VALID,91.2503,VALID,0,VALID,23.4475,VALID,104,VALID,0.130859,
2011-03-28, 00:25:04,VALID,998.361,VALID,0,VALID,91.1587,VALID,0,VALID,23.428,VALID,17,VALID,1.05156,
2011-03-28, 00:26:04,VALID,998.337,VALID,0,VALID,91.1892,VALID,0,VALID,23.428,VALID,28,VALID,0.888281,
2011-03-28, 00:27:04,VALID,998.346,VALID,0,VALID,91.2197,VALID,0,VALID,23.4475,VALID,36,VALID,1.17773,
2011-03-28, 00:28:04,VALID,998.324,VALID,0,VALID,91.296,VALID,0,VALID,23.428,VALID,38,VALID,1.02148,
2011-03-28, 00:29:04,VALID,998.312,VALID,0,VALID,91.3342,VALID,0,VALID,23.4085,VALID,37,VALID,0.950781,
2011-03-28, 00:30:04,VALID,998.316,VALID,0,VALID,91.3571,VALID,0,VALID,23.389,VALID,37,VALID,0.537109,
2011-03-28, 00:31:04,VALID,998.293,VALID,0,VALID,91.3952,VALID,0,VALID,23.3695,VALID,17,VALID,0.880078,
2011-03-28, 00:32:04,VALID,998.304,VALID,0,VALID,91.4486,VALID,0,VALID,23.3305,VALID,2,VALID,0.568359,
2011-03-28, 00:33:04,VALID,998.323,VALID,0,VALID,91.4334,VALID,0,VALID,23.2915,VALID,2,VALID,0.822656,
2011-03-28, 00:34:04,VALID,998.308,VALID,0,VALID,91.4486,VALID,0,VALID,23.2719,VALID,4,VALID,0.791406,
2011-03-28, 00:35:05,VALID,998.295,VALID,0,VALID,91.4791,VALID,0,VALID,23.2719,VALID,336,VALID,0.975,
2011-03-28, 00:36:05,VALID,998.312,VALID,0,VALID,91.502,VALID,0,VALID,23.2524,VALID,345,VALID,0.855859,
2011-03-28, 00:37:05,VALID,998.28,VALID,0,VALID,91.502,VALID,0,VALID,23.2507,VALID,5,VALID,0.959375,
2011-03-28, 00:38:05,VALID,998.267,VALID,0,VALID,91.4486,VALID,0,VALID,23.2329,VALID,346,VALID,0.832812,
2011-03-28, 00:39:05,VALID,998.262,VALID,0,VALID,91.441,VALID,0,VALID,23.2329,VALID,329,VALID,0.595312,
2011-03-28, 00:40:05,VALID,998.239,VALID,0,VALID,91.4028,VALID,0,VALID,23.2524,VALID,329,VALID,0.598828,
2011-03-28, 00:41:05,VALID,998.224,VALID,0,VALID,91.4028,VALID,0,VALID,23.2134,VALID,329,VALID,0.527344,
2011-03-28, 00:42:05,VALID,998.175,VALID,0,VALID,91.38,VALID,0,VALID,23.2134,VALID,28,VALID,0.423047,
2011-03-28, 00:43:05,VALID,998.174,VALID,0,VALID,91.3571,VALID,0,VALID,23.2134,VALID,37,VALID,0.790625,
2011-03-28, 00:44:05,VALID,998.147,VALID,0,VALID,91.3494,VALID,0,VALID,23.1744,VALID,62,VALID,0.814062,
2011-03-28, 00:45:05,VALID,998.163,VALID,0,VALID,91.3113,VALID,0,VALID,23.1549,VALID,62,VALID,0.398828,
2011-03-28, 00:46:05,VALID,998.166,VALID,0,VALID,91.2884,VALID,0,VALID,23.1354,VALID,62,VALID,0.225391,
2011-03-28, 00:47:05,VALID,998.141,VALID,0,VALID,91.3342,VALID,0,VALID,23.1159,VALID,62,VALID,0,
2011-03-28, 00:48:05,VALID,998.158,VALID,0,VALID,91.3952,VALID,0,VALID,23.1159,VALID,62,VALID,0.412891,
2011-03-28, 00:49:05,VALID,998.146,VALID,0,VALID,91.5326,VALID,0,VALID,23.1159,VALID,84,VALID,0.612891,
2011-03-28, 00:50:05,VALID,998.171,VALID,0,VALID,91.6241,VALID,0,VALID,23.0964,VALID,89,VALID,0.849609,
2011-03-28, 00:51:05,VALID,998.156,VALID,0,VALID,91.7233,VALID,0,VALID,23.0573,VALID,95,VALID,0.313672,
2011-03-28, 00:52:05,VALID,998.161,VALID,0,VALID,91.7691,VALID,0,VALID,23.0378,VALID,96,VALID,0.40625,
2011-03-28, 00:53:05,VALID,998.156,VALID,0,VALID,91.8759,VALID,0,VALID,23.0378,VALID,207,VALID,0.486719,
2011-03-28, 00:54:05,VALID,998.182,VALID,0,VALID,91.9674,VALID,0,VALID,23.0769,VALID,207,VALID,0.277734,
2011-03-28, 00:55:05,VALID,998.17,VALID,0,VALID,92.059,VALID,0,VALID,23.0769,VALID,207,VALID,0,
2011-03-28, 00:56:05,VALID,998.159,VALID,0,VALID,92.1124,VALID,0,VALID,23.0769,VALID,207,VALID,0.0015625,
2011-03-28, 00:57:05,VALID,998.171,VALID,0,VALID,92.12,VALID,0,VALID,23.0769,VALID,207,VALID,0.372266,
2011-03-28, 00:58:05,VALID,998.159,VALID,0,VALID,92.1506,VALID,0,VALID,23.0769,VALID,207,VALID,0.462891,
2011-03-28, 00:59:05,VALID,998.122,VALID,0,VALID,92.1429,VALID,0,VALID,23.0964,VALID,207,VALID,0.179297,
2011-03-28, 01:00:05,VALID,998.125,VALID,0,VALID,92.1734,VALID,0,VALID,23.0769,VALID,207,VALID,0,
2011-03-28, 01:01:05,VALID,998.12,VALID,0,VALID,92.1353,VALID,0,VALID,23.0751,VALID,207,VALID,0,
2011-03-28, 01:02:05,VALID,998.1,VALID,0,VALID,92.1277,VALID,0,VALID,23.0964,VALID,320,VALID,0.969531,
2011-03-28, 01:03:05,VALID,998.094,VALID,0,VALID,92.0819,VALID,0,VALID,23.0769,VALID,330,VALID,0.976563,
2011-03-28, 01:04:05,VALID,998.086,VALID,0,VALID,92.0666,VALID,0,VALID,23.0361,VALID,340,VALID,0.819922,
2011-03-28, 01:05:05,VALID,998.114,VALID,0,VALID,92.0437,VALID,0,VALID,23.0573,VALID,356,VALID,0.726953,
2011-03-28, 01:06:05,VALID,998.128,VALID,0,VALID,91.9903,VALID,0,VALID,23.0573,VALID,356,VALID,0.733594,
2011-03-28, 01:07:05,VALID,998.109,VALID,0,VALID,91.9598,VALID,0,VALID,23.0573,VALID,356,VALID,0.683594,
2011-03-28, 01:08:05,VALID,998.108,VALID,0,VALID,91.914,VALID,0,VALID,23.0573,VALID,353,VALID,0.643359,
2011-03-28, 01:09:05,VALID,998.108,VALID,0,VALID,91.914,VALID,0,VALID,23.0573,VALID,353,VALID,0.56875,
2011-03-28, 01:10:05,VALID,998.079,VALID,0,VALID,91.9217,VALID,0,VALID,23.0573,VALID,353,VALID,0.139844,
2011-03-28, 01:11:05,VALID,998.095,VALID,0,VALID,91.9598,VALID,0,VALID,23.0183,VALID,353,VALID,0,
2011-03-28, 01:12:05,VALID,998.073,VALID,0,VALID,91.9674,VALID,0,VALID,23.0378,VALID,342,VALID,0.0515625,
2011-03-28, 01:13:05,VALID,998.076,VALID,0,VALID,92.0285,VALID,0,VALID,23.0573,VALID,32,VALID,0.684375,
2011-03-28, 01:14:05,VALID,998.065,VALID,0,VALID,92.0285,VALID,0,VALID,23.0573,VALID,24,VALID,0.514844,
2011-03-28, 01:15:05,VALID,998.046,VALID,0,VALID,92.0132,VALID,0,VALID,23.0573,VALID,16,VALID,0.630078,
2011-03-28, 01:16:05,VALID,998.038,VALID,0,VALID,91.9827,VALID,0,VALID,23.0769,VALID,9,VALID,0.634766,
2011-03-28, 01:17:05,VALID,998.023,VALID,0,VALID,91.9522,VALID,0,VALID,23.0964,VALID,9,VALID,0.710156,
2011-03-28, 01:18:05,VALID,998.006,VALID,0,VALID,91.9217,VALID,0,VALID,23.0769,VALID,9,VALID,0.648438,
2011-03-28, 01:19:05,VALID,998.035,VALID,0,VALID,91.853,VALID,0,VALID,23.0573,VALID,9,VALID,0.691797,
2011-03-28, 01:20:05,VALID,998.003,VALID,0,VALID,91.8377,VALID,0,VALID,23.0361,VALID,9,VALID,0.542188,
2011-03-28, 01:21:05,VALID,998.021,VALID,0,VALID,91.8454,VALID,0,VALID,23.0573,VALID,9,VALID,0.591797,
2011-03-28, 01:22:05,VALID,998.025,VALID,0,VALID,91.8225,VALID,0,VALID,23.0378,VALID,9,VALID,0.736719,
2011-03-28, 01:23:05,VALID,998.011,VALID,0,VALID,91.8225,VALID,0,VALID,23.0378,VALID,19,VALID,0.75625,
2011-03-28, 01:24:05,VALID,998.014,VALID,0,VALID,91.8377,VALID,0,VALID,23.0183,VALID,19,VALID,0.901953,
2011-03-28, 01:25:05,VALID,998.005,VALID,0,VALID,91.8759,VALID,0,VALID,23.0378,VALID,16,VALID,0.950781,
2011-03-28, 01:26:05,VALID,998.043,VALID,0,VALID,91.8759,VALID,0,VALID,23.0183,VALID,11,VALID,0.869922,
2011-03-28, 01:27:05,VALID,998.021,VALID,0,VALID,91.9217,VALID,0,VALID,22.9988,VALID,11,VALID,0.866797,
2011-03-28, 01:28:05,VALID,998.01,VALID,0,VALID,91.9674,VALID,0,VALID,23.0183,VALID,14,VALID,0.842969,
2011-03-28, 01:29:05,VALID,998.008,VALID,0,VALID,91.998,VALID,0,VALID,22.9776,VALID,15,VALID,1.05977,
2011-03-28, 01:30:05,VALID,998.03,VALID,0,VALID,92.0437,VALID,0,VALID,22.9988,VALID,18,VALID,1.12852,
2011-03-28, 01:31:05,VALID,998.028,VALID,0,VALID,92.0666,VALID,0,VALID,22.9988,VALID,35,VALID,0.883594,
2011-03-28, 01:32:05,VALID,998.032,VALID,0,VALID,92.0971,VALID,0,VALID,22.9793,VALID,35,VALID,0.687891,
2011-03-28, 01:33:05,VALID,998.034,VALID,0,VALID,92.1048,VALID,0,VALID,22.9793,VALID,37,VALID,0.653125,
2011-03-28, 01:34:05,VALID,998.065,VALID,0,VALID,92.1887,VALID,0,VALID,22.9793,VALID,49,VALID,0.549609,
2011-03-28, 01:35:05,VALID,998.048,VALID,0,VALID,92.2192,VALID,0,VALID,22.9598,VALID,46,VALID,0.466406,
2011-03-28, 01:36:05,VALID,998.033,VALID,0,VALID,92.2345,VALID,0,VALID,22.9598,VALID,37,VALID,0.369922,
2011-03-28, 01:37:05,VALID,998.093,VALID,0,VALID,92.3031,VALID,0,VALID,22.9598,VALID,36,VALID,0.988281,
2011-03-28, 01:38:05,VALID,998.086,VALID,0,VALID,92.3413,VALID,0,VALID,22.9598,VALID,39,VALID,0.805859,
2011-03-28, 01:39:05,VALID,998.105,VALID,0,VALID,92.3794,VALID,0,VALID,22.9598,VALID,49,VALID,1.11445,
2011-03-28, 01:40:05,VALID,998.089,VALID,0,VALID,92.4405,VALID,0,VALID,22.9598,VALID,58,VALID,0.878906,
2011-03-28, 01:41:05,VALID,998.111,VALID,0,VALID,92.471,VALID,0,VALID,22.9598,VALID,71,VALID,0.855078,
2011-03-28, 01:42:05,VALID,998.098,VALID,0,VALID,92.4786,VALID,0,VALID,22.9598,VALID,72,VALID,0.00195313,
2011-03-28, 01:43:05,VALID,998.09,VALID,0,VALID,92.532,VALID,0,VALID,22.9598,VALID,72,VALID,0,
2011-03-28, 01:44:05,VALID,998.105,VALID,0,VALID,92.532,VALID,0,VALID,22.9598,VALID,72,VALID,0,
2011-03-28, 01:45:05,VALID,998.085,VALID,0,VALID,92.5473,VALID,0,VALID,22.9598,VALID,72,VALID,0,
2011-03-28, 01:46:05,VALID,998.089,VALID,0,VALID,92.5626,VALID,0,VALID,22.9598,VALID,72,VALID,0,
2011-03-28, 01:47:05,VALID,998.073,VALID,0,VALID,92.5854,VALID,0,VALID,22.9598,VALID,296,VALID,0,
2011-03-28, 01:48:05,VALID,998.087,VALID,0,VALID,92.5854,VALID,0,VALID,22.9581,VALID,300,VALID,0,
2011-03-28, 01:49:05,VALID,998.05,VALID,0,VALID,92.6007,VALID,0,VALID,22.9793,VALID,312,VALID,0,
2011-03-28, 01:50:05,VALID,998.036,VALID,0,VALID,92.5931,VALID,0,VALID,22.9793,VALID,312,VALID,0,
2011-03-28, 01:51:05,VALID,998.043,VALID,0,VALID,92.6083,VALID,0,VALID,22.9793,VALID,312,VALID,0,
2011-03-28, 01:52:05,VALID,998.016,VALID,0,VALID,92.6007,VALID,0,VALID,22.9811,VALID,312,VALID,0,
2011-03-28, 01:53:05,VALID,998.035,VALID,0,VALID,92.6007,VALID,0,VALID,22.9793,VALID,312,VALID,0,
2011-03-28, 01:54:05,VALID,998.007,VALID,0,VALID,92.5854,VALID,0,VALID,23.0006,VALID,344,VALID,0.523438,
2011-03-28, 01:55:05,VALID,998.039,VALID,0,VALID,92.5854,VALID,0,VALID,22.9793,VALID,352,VALID,0,
2011-03-28, 01:56:05,VALID,997.967,VALID,0,VALID,92.5702,VALID,0,VALID,22.9581,VALID,49,VALID,0,
2011-03-28, 01:57:05,VALID,998.005,VALID,0,VALID,92.5702,VALID,0,VALID,22.9793,VALID,97,VALID,0,
2011-03-28, 01:58:05,VALID,997.988,VALID,0,VALID,92.5549,VALID,0,VALID,22.9793,VALID,97,VALID,0,
2011-03-28, 01:59:05,VALID,997.994,VALID,0,VALID,92.5244,VALID,0,VALID,22.9776,VALID,97,VALID,0,
2011-03-28, 02:00:05,VALID,997.981,VALID,0,VALID,92.532,VALID,0.112286,VALID,22.9776,VALID,97,VALID,0,
2011-03-28, 02:01:05,VALID,997.966,VALID,0,VALID,92.5244,VALID,0,VALID,22.9776,VALID,97,VALID,0,
2011-03-28, 02:02:05,VALID,997.947,VALID,0,VALID,92.4939,VALID,0.112286,VALID,22.9776,VALID,97,VALID,0,
2011-03-28, 02:03:05,VALID,997.917,VALID,0,VALID,92.5091,VALID,0.112286,VALID,23.0183,VALID,97,VALID,0,
2011-03-28, 02:04:05,VALID,997.901,VALID,0,VALID,92.4863,VALID,0,VALID,23.0166,VALID,97,VALID,0,
2011-03-28, 02:05:05,VALID,997.894,VALID,0,VALID,92.4786,VALID,0,VALID,23.0378,VALID,97,VALID,0,
2011-03-28, 02:06:05,VALID,997.872,VALID,0,VALID,92.4863,VALID,0.112286,VALID,23.0166,VALID,97,VALID,0,
2011-03-28, 02:07:05,VALID,997.905,VALID,0,VALID,92.471,VALID,0,VALID,23.0183,VALID,97,VALID,0,
2011-03-28, 02:08:05,VALID,997.854,VALID,0,VALID,92.4634,VALID,0,VALID,23.0166,VALID,97,VALID,0,
2011-03-28, 02:09:05,VALID,997.869,VALID,0,VALID,92.471,VALID,0,VALID,23.0166,VALID,97,VALID,0,
2011-03-28, 02:10:05,VALID,997.839,VALID,0,VALID,92.4328,VALID,0.112286,VALID,22.9971,VALID,97,VALID,0,
2011-03-28, 02:11:05,VALID,997.838,VALID,0,VALID,92.4557,VALID,0,VALID,23.0183,VALID,97,VALID,0,
2011-03-28, 02:12:05,VALID,997.829,VALID,0,VALID,92.4557,VALID,0,VALID,23.0166,VALID,97,VALID,0,
2011-03-28, 02:13:05,VALID,997.835,VALID,0,VALID,92.4786,VALID,0,VALID,23.0361,VALID,97,VALID,0,
2011-03-28, 02:14:05,VALID,997.809,VALID,0,VALID,92.471,VALID,0,VALID,23.0361,VALID,97,VALID,0,
2011-03-28, 02:15:05,VALID,997.825,VALID,0,VALID,92.471,VALID,0,VALID,23.0769,VALID,97,VALID,0,
2011-03-28, 02:16:05,VALID,997.789,VALID,0,VALID,92.471,VALID,0.112286,VALID,23.0751,VALID,97,VALID,0,
2011-03-28, 02:17:05,VALID,997.8,VALID,0,VALID,92.4863,VALID,0,VALID,23.1159,VALID,97,VALID,0,
2011-03-28, 02:18:05,VALID,997.774,VALID,0,VALID,92.4939,VALID,0,VALID,23.1354,VALID,97,VALID,0,
2011-03-28, 02:19:05,VALID,997.795,VALID,0,VALID,92.471,VALID,0,VALID,23.1531,VALID,97,VALID,0,
2011-03-28, 02:20:05,VALID,997.787,VALID,0,VALID,92.4557,VALID,0,VALID,23.1726,VALID,97,VALID,0,
2011-03-28, 02:21:05,VALID,997.742,VALID,0,VALID,92.4328,VALID,0,VALID,23.1726,VALID,97,VALID,0,
2011-03-28, 02:22:05,VALID,997.742,VALID,0,VALID,92.3947,VALID,0,VALID,23.1921,VALID,97,VALID,0,
2011-03-28, 02:23:05,VALID,997.759,VALID,0,VALID,92.3489,VALID,0,VALID,23.2117,VALID,97,VALID,0,
2011-03-28, 02:24:05,VALID,997.713,VALID,0,VALID,92.3031,VALID,0,VALID,23.2117,VALID,96,VALID,0.364844,
2011-03-28, 02:25:05,VALID,997.698,VALID,0,VALID,92.204,VALID,0.112286,VALID,23.2312,VALID,96,VALID,0.295703,
2011-03-28, 02:26:05,VALID,997.709,VALID,0,VALID,92.0895,VALID,0,VALID,23.2915,VALID,96,VALID,0.183984,
2011-03-28, 02:27:05,VALID,997.684,VALID,0,VALID,92.0132,VALID,0.112286,VALID,23.2702,VALID,93,VALID,0,
2011-03-28, 02:28:05,VALID,997.695,VALID,0,VALID,91.8759,VALID,0,VALID,23.2702,VALID,45,VALID,0,
2011-03-28, 02:29:05,VALID,997.671,VALID,0,VALID,91.7843,VALID,0,VALID,23.2702,VALID,45,VALID,0,
2011-03-28, 02:30:05,VALID,997.651,VALID,0,VALID,91.6928,VALID,0,VALID,23.2719,VALID,3,VALID,0.930078,
2011-03-28, 02:31:05,VALID,997.669,VALID,0,VALID,91.6623,VALID,0,VALID,23.2117,VALID,9,VALID,0.601172,
2011-03-28, 02:32:05,VALID,997.651,VALID,0,VALID,91.6394,VALID,0,VALID,23.2117,VALID,47,VALID,0,
2011-03-28, 02:33:05,VALID,997.681,VALID,0,VALID,91.6317,VALID,0,VALID,23.1726,VALID,346,VALID,0,
2011-03-28, 02:34:05,VALID,997.7,VALID,0,VALID,91.7004,VALID,0,VALID,23.1726,VALID,337,VALID,0,
2011-03-28, 02:35:05,VALID,997.692,VALID,0,VALID,91.7767,VALID,0,VALID,23.1549,VALID,15,VALID,0,
2011-03-28, 02:36:05,VALID,997.687,VALID,0,VALID,91.853,VALID,0,VALID,23.1549,VALID,15,VALID,0,
2011-03-28, 02:37:05,VALID,997.668,VALID,0,VALID,91.8835,VALID,0,VALID,23.1141,VALID,15,VALID,0,
2011-03-28, 02:38:05,VALID,997.66,VALID,0,VALID,91.9217,VALID,0.112286,VALID,23.1354,VALID,15,VALID,0,
2011-03-28, 02:39:05,VALID,997.663,VALID,0,VALID,91.9522,VALID,0.112286,VALID,23.1354,VALID,15,VALID,0,
2011-03-28, 02:40:05,VALID,997.696,VALID,0,VALID,91.9674,VALID,0.112286,VALID,23.0946,VALID,15,VALID,0,
2011-03-28, 02:41:05,VALID,997.708,VALID,0,VALID,91.9598,VALID,0,VALID,23.0964,VALID,15,VALID,0,
2011-03-28, 02:42:05,VALID,997.665,VALID,0,VALID,91.998,VALID,0,VALID,23.0751,VALID,15,VALID,0,
2011-03-28, 02:43:05,VALID,997.673,VALID,0,VALID,91.9827,VALID,0,VALID,23.0964,VALID,15,VALID,0,
2011-03-28, 02:44:05,VALID,997.705,VALID,0,VALID,91.998,VALID,0,VALID,23.0751,VALID,351,VALID,0,
2011-03-28, 02:45:05,VALID,997.749,VALID,0,VALID,91.9903,VALID,0,VALID,23.0946,VALID,340,VALID,0,
2011-03-28, 02:46:05,VALID,997.735,VALID,0,VALID,91.9598,VALID,0,VALID,23.0556,VALID,8,VALID,0,
2011-03-28, 02:47:05,VALID,997.748,VALID,0,VALID,91.9522,VALID,0,VALID,23.0769,VALID,23,VALID,0,
2011-03-28, 02:48:05,VALID,997.759,VALID,0,VALID,91.9445,VALID,0.112286,VALID,23.0556,VALID,33,VALID,0,
2011-03-28, 02:49:05,VALID,997.788,VALID,0,VALID,91.9064,VALID,0,VALID,23.0556,VALID,10,VALID,0,
2011-03-28, 02:50:05,VALID,997.797,VALID,0,VALID,91.8835,VALID,0,VALID,23.0556,VALID,11,VALID,0,
2011-03-28, 02:51:05,VALID,997.865,VALID,0,VALID,91.8683,VALID,0,VALID,23.0361,VALID,12,VALID,0,
2011-03-28, 02:52:05,VALID,997.839,VALID,0,VALID,91.8759,VALID,0,VALID,23.0573,VALID,12,VALID,0,
2011-03-28, 02:53:05,VALID,997.858,VALID,0,VALID,91.8377,VALID,0,VALID,23.0166,VALID,12,VALID,0,
2011-03-28, 02:54:05,VALID,997.867,VALID,0,VALID,91.8454,VALID,0,VALID,23.0166,VALID,12,VALID,0,
2011-03-28, 02:55:05,VALID,997.871,VALID,0,VALID,91.8301,VALID,0.112286,VALID,23.0183,VALID,12,VALID,0,
2011-03-28, 02:56:05,VALID,997.882,VALID,0,VALID,91.8148,VALID,0,VALID,22.9988,VALID,12,VALID,0,
2011-03-28, 02:57:05,VALID,997.887,VALID,0,VALID,91.8225,VALID,0,VALID,22.9988,VALID,12,VALID,0.0121094,
2011-03-28, 02:58:05,VALID,997.908,VALID,0,VALID,91.7843,VALID,0,VALID,22.9581,VALID,5,VALID,1.38711,
2011-03-28, 02:59:05,VALID,997.863,VALID,0,VALID,91.792,VALID,0,VALID,22.9598,VALID,20,VALID,0.822266,
2011-03-28, 03:00:05,VALID,997.873,VALID,0,VALID,91.7462,VALID,0,VALID,22.9793,VALID,29,VALID,0.645703,
2011-03-28, 03:01:05,VALID,997.854,VALID,0,VALID,91.7538,VALID,0,VALID,22.9598,VALID,29,VALID,0.660937,
2011-03-28, 03:02:05,VALID,997.876,VALID,0,VALID,91.7309,VALID,0,VALID,22.9598,VALID,30,VALID,0.214453,
2011-03-28, 03:03:05,VALID,997.85,VALID,0,VALID,91.7309,VALID,0,VALID,22.9598,VALID,30,VALID,0.00195313,
2011-03-28, 03:04:05,VALID,997.851,VALID,0,VALID,91.7462,VALID,0,VALID,22.9403,VALID,30,VALID,0.00429688,
2011-03-28, 03:05:05,VALID,997.885,VALID,0,VALID,91.7538,VALID,0,VALID,22.9403,VALID,30,VALID,0.150391,
2011-03-28, 03:06:05,VALID,997.895,VALID,0,VALID,91.7691,VALID,0,VALID,22.9403,VALID,30,VALID,0,
2011-03-28, 03:07:05,VALID,997.888,VALID,0,VALID,91.7767,VALID,0,VALID,22.9208,VALID,30,VALID,0,
2011-03-28, 03:08:05,VALID,997.867,VALID,0,VALID,91.8072,VALID,0,VALID,22.9208,VALID,30,VALID,0,
2011-03-28, 03:09:05,VALID,997.865,VALID,0,VALID,91.8301,VALID,0,VALID,22.9403,VALID,30,VALID,0,
2011-03-28, 03:10:05,VALID,997.871,VALID,0,VALID,91.8377,VALID,0,VALID,22.919,VALID,30,VALID,0,
2011-03-28, 03:11:05,VALID,997.865,VALID,0,VALID,91.8759,VALID,0,VALID,22.9208,VALID,30,VALID,0.373047,
2011-03-28, 03:12:05,VALID,997.875,VALID,0,VALID,91.8835,VALID,0,VALID,22.919,VALID,30,VALID,0.386328,
2011-03-28, 03:13:05,VALID,997.852,VALID,0,VALID,91.914,VALID,0,VALID,22.9598,VALID,30,VALID,0.362109,
2011-03-28, 03:14:05,VALID,997.81,VALID,0,VALID,91.9522,VALID,0,VALID,22.9811,VALID,124,VALID,0.632813,
2011-03-28, 03:15:05,VALID,997.861,VALID,0,VALID,91.9751,VALID,0,VALID,23.0006,VALID,145,VALID,0.895703,
2011-03-28, 03:16:05,VALID,997.855,VALID,0,VALID,91.9827,VALID,0,VALID,23.0201,VALID,146,VALID,1.00469,
2011-03-28, 03:17:05,VALID,997.858,VALID,0,VALID,91.914,VALID,0,VALID,23.0591,VALID,153,VALID,0.960547,
2011-03-28, 03:18:05,VALID,997.888,VALID,0,VALID,91.8225,VALID,0,VALID,23.0981,VALID,153,VALID,0.694922,
2011-03-28, 03:19:05,VALID,997.915,VALID,0,VALID,91.7309,VALID,0,VALID,23.1176,VALID,153,VALID,0.392578,
2011-03-28, 03:20:05,VALID,997.91,VALID,0,VALID,91.6088,VALID,0,VALID,23.1159,VALID,153,VALID,0.00195313,
2011-03-28, 03:21:05,VALID,997.899,VALID,0,VALID,91.4868,VALID,0,VALID,23.1371,VALID,153,VALID,0,
2011-03-28, 03:22:05,VALID,997.928,VALID,0,VALID,91.3418,VALID,0,VALID,23.1371,VALID,150,VALID,0,
2011-03-28, 03:23:04,VALID,997.934,VALID,0,VALID,91.1663,VALID,0,VALID,23.1566,VALID,145,VALID,0,
2011-03-28, 03:24:04,VALID,997.929,VALID,0,VALID,91.029,VALID,0,VALID,23.1762,VALID,128,VALID,0,
2011-03-28, 03:25:04,VALID,997.948,VALID,0,VALID,90.8993,VALID,0,VALID,23.1354,VALID,118,VALID,0.735937,
2011-03-28, 03:26:04,VALID,997.929,VALID,0,VALID,90.8459,VALID,0,VALID,23.1354,VALID,118,VALID,0.646875,
2011-03-28, 03:27:04,VALID,997.928,VALID,0,VALID,90.8077,VALID,0,VALID,23.1371,VALID,118,VALID,0.55,
2011-03-28, 03:28:04,VALID,997.916,VALID,0,VALID,90.8383,VALID,0,VALID,23.1176,VALID,118,VALID,0.48125,
2011-03-28, 03:29:04,VALID,997.916,VALID,0,VALID,90.8764,VALID,0,VALID,23.0751,VALID,118,VALID,0,
2011-03-28, 03:30:04,VALID,997.905,VALID,0,VALID,90.9374,VALID,0,VALID,23.0964,VALID,118,VALID,0,
2011-03-28, 03:31:04,VALID,997.912,VALID,0,VALID,91.0366,VALID,0,VALID,23.0769,VALID,118,VALID,0,
2011-03-28, 03:32:04,VALID,997.917,VALID,0,VALID,91.1282,VALID,0,VALID,23.0573,VALID,118,VALID,0,
2011-03-28, 03:33:04,VALID,997.962,VALID,0,VALID,91.1968,VALID,0,VALID,23.0378,VALID,118,VALID,0,
2011-03-28, 03:34:04,VALID,997.982,VALID,0,VALID,91.296,VALID,0,VALID,23.0378,VALID,118,VALID,0,
2011-03-28, 03:35:04,VALID,997.974,VALID,0,VALID,91.3952,VALID,0,VALID,23.0183,VALID,118,VALID,0,
2011-03-28, 03:36:04,VALID,998.014,VALID,0,VALID,91.502,VALID,0,VALID,23.0183,VALID,44,VALID,0,
2011-03-28, 03:37:04,VALID,998.016,VALID,0,VALID,91.586,VALID,0,VALID,22.9988,VALID,44,VALID,0,
2011-03-28, 03:38:04,VALID,998.044,VALID,0,VALID,91.647,VALID,0,VALID,22.9988,VALID,44,VALID,0,
2011-03-28, 03:39:04,VALID,998.023,VALID,0,VALID,91.7004,VALID,0,VALID,22.9793,VALID,44,VALID,0,
2011-03-28, 03:40:04,VALID,998.079,VALID,0,VALID,91.7614,VALID,0,VALID,22.9581,VALID,44,VALID,0,
2011-03-28, 03:41:04,VALID,998.096,VALID,0,VALID,91.8454,VALID,0,VALID,22.9403,VALID,44,VALID,0,
2011-03-28, 03:42:04,VALID,998.102,VALID,0,VALID,91.8988,VALID,0,VALID,22.919,VALID,44,VALID,0,
2011-03-28, 03:43:04,VALID,998.106,VALID,0,VALID,91.9293,VALID,0,VALID,22.9403,VALID,44,VALID,0,
2011-03-28, 03:44:04,VALID,998.12,VALID,0,VALID,91.9827,VALID,0,VALID,22.9208,VALID,44,VALID,0,
2011-03-28, 03:45:04,VALID,998.119,VALID,0,VALID,92.0361,VALID,0,VALID,22.9208,VALID,44,VALID,0,
2011-03-28, 03:46:04,VALID,998.14,VALID,0,VALID,92.059,VALID,0,VALID,22.9208,VALID,44,VALID,0,
2011-03-28, 03:47:04,VALID,998.135,VALID,0,VALID,92.0819,VALID,0,VALID,22.8995,VALID,44,VALID,0,
2011-03-28, 03:48:04,VALID,998.099,VALID,0,VALID,92.1124,VALID,0,VALID,22.9013,VALID,44,VALID,0,
2011-03-28, 03:49:04,VALID,998.103,VALID,0,VALID,92.1277,VALID,0,VALID,22.9208,VALID,44,VALID,0,
2011-03-28, 03:50:04,VALID,998.11,VALID,0,VALID,92.1277,VALID,0,VALID,22.9208,VALID,44,VALID,0,
2011-03-28, 03:51:04,VALID,998.093,VALID,0,VALID,92.1429,VALID,0,VALID,22.9208,VALID,44,VALID,0,
2011-03-28, 03:52:04,VALID,998.094,VALID,0,VALID,92.1353,VALID,0,VALID,22.8995,VALID,44,VALID,0,